owner,sensor,date,latitude,longitude,vertical_datum,direction_of_sea_water_velocity,sea_water_speed,upward_sea_water_velocity,qcFlag 
TABS,ioos:station:wmo:42050:1,2002-10-01T00:00:00Z,28.8425,-94.2433,2.0,269.4058631,5.790310872,-99999.0,'11133222,11111222,99999999' 
TABS,ioos:station:wmo:42050:1,2002-10-01T00:30:00Z,28.8425,-94.2433,2.0,277.2715826,6.320830642,-99999.0,'11133222,11111222,99999999' 
TABS,ioos:station:wmo:42050:1,2002-10-01T01:00:00Z,28.8425,-94.2433,2.0,293.4860178,7.076192479,-99999.0,'11133222,11111222,99999999' 
TABS,ioos:station:wmo:42050:1,2002-10-01T01:30:00Z,28.8425,-94.2433,2.0,323.3515556,7.254054039,-99999.0,'11133222,11111222,99999999' 
TABS,ioos:station:wmo:42050:1,2002-10-01T02:00:00Z,28.8425,-94.2433,2.0,351.5186245,12.67866318,-99999.0,'11111222,11111222,99999999' 
TABS,ioos:station:wmo:42050:1,2002-10-01T02:30:00Z,28.8425,-94.2433,2.0,2.204214901,15.60154159,-99999.0,'11111222,11111222,99999999' 
TABS,ioos:station:wmo:42050:1,2002-10-01T03:00:00Z,28.8425,-94.2433,2.0,6.23256131,15.8436391,-99999.0,'11111222,11111222,99999999' 
TABS,ioos:station:wmo:42050:1,2002-10-01T03:30:00Z,28.8425,-94.2433,2.0,7.357462897,14.9934419,-99999.0,'11111222,11111222,99999999' 
TABS,ioos:station:wmo:42050:1,2002-10-01T04:00:00Z,28.8425,-94.2433,2.0,22.72365258,14.88540896,-99999.0,'11111222,11111222,99999999' 
TABS,ioos:station:wmo:42050:1,2002-10-01T04:30:00Z,28.8425,-94.2433,2.0,14.58337962,17.27659978,-99999.0,'11111222,11111222,99999999' 
TABS,ioos:station:wmo:42050:1,2002-10-01T05:00:00Z,28.8425,-94.2433,2.0,25.22958007,14.00606297,-99999.0,'11111222,11111222,99999999' 
TABS,ioos:station:wmo:42050:1,2002-10-01T05:30:00Z,28.8425,-94.2433,2.0,32.47742405,14.41434008,-99999.0,'11111222,11111222,99999999' 
TABS,ioos:station:wmo:42050:1,2002-10-01T06:00:00Z,28.8425,-94.2433,2.0,37.23739476,14.97230777,-99999.0,'11111222,11111222,99999999' 
TABS,ioos:station:wmo:42050:1,2002-10-01T06:30:00Z,28.8425,-94.2433,2.0,49.90099589,12.74623866,-99999.0,'11111222,11111222,99999999' 
TABS,ioos:station:wmo:42050:1,2002-10-01T07:00:00Z,28.8425,-94.2433,2.0,67.59926276,12.07085747,-99999.0,'11111222,11111222,99999999' 
TABS,ioos:station:wmo:42050:1,2002-10-01T07:30:00Z,28.8425,-94.2433,2.0,83.8433732,11.37560987,-99999.0,'11111222,11111222,99999999' 
TABS,ioos:station:wmo:42050:1,2002-10-01T08:00:00Z,28.8425,-94.2433,2.0,84.64856275,12.22327697,-99999.0,'11111222,11111222,99999999' 
TABS,ioos:station:wmo:42050:1,2002-10-01T08:30:00Z,28.8425,-94.2433,2.0,77.34255188,11.59170824,-99999.0,'11111222,11111222,99999999' 
TABS,ioos:station:wmo:42050:1,2002-10-01T09:00:00Z,28.8425,-94.2433,2.0,84.18474597,14.70567918,-99999.0,'11111222,11111222,99999999' 
TABS,ioos:station:wmo:42050:1,2002-10-01T09:30:00Z,28.8425,-94.2433,2.0,90.72576295,13.42107671,-99999.0,'11111222,11111222,99999999' 
TABS,ioos:station:wmo:42050:1,2002-10-01T10:00:00Z,28.8425,-94.2433,2.0,97.50380835,15.00853091,-99999.0,'11111222,11111222,99999999' 
TABS,ioos:station:wmo:42050:1,2002-10-01T10:30:00Z,28.8425,-94.2433,2.0,110.8655109,11.4830745,-99999.0,'11111222,11111222,99999999' 
TABS,ioos:station:wmo:42050:1,2002-10-01T11:00:00Z,28.8425,-94.2433,2.0,103.8411775,15.67516826,-99999.0,'11111222,11111222,99999999' 
TABS,ioos:station:wmo:42050:1,2002-10-01T11:30:00Z,28.8425,-94.2433,2.0,121.9748239,3.984532595,-99999.0,'11133222,11111222,99999999' 
TABS,ioos:station:wmo:42050:1,2002-10-01T12:00:00Z,28.8425,-94.2433,2.0,101.9257855,13.50141474,-99999.0,'11111222,11111222,99999999' 
TABS,ioos:station:wmo:42050:1,2002-10-01T12:30:00Z,28.8425,-94.2433,2.0,97.30465897,13.44915239,-99999.0,'11111222,11111222,99999999' 
TABS,ioos:station:wmo:42050:1,2002-10-01T13:00:00Z,28.8425,-94.2433,2.0,103.5487956,15.11051621,-99999.0,'11111222,11111222,99999999' 
TABS,ioos:station:wmo:42050:1,2002-10-01T13:30:00Z,28.8425,-94.2433,2.0,98.94410743,12.54251171,-99999.0,'11111222,11111222,99999999' 
TABS,ioos:station:wmo:42050:1,2002-10-01T14:00:00Z,28.8425,-94.2433,2.0,118.4787852,12.85561745,-99999.0,'11111222,11111222,99999999' 
TABS,ioos:station:wmo:42050:1,2002-10-01T14:30:00Z,28.8425,-94.2433,2.0,111.3126167,12.40861394,-99999.0,'11111222,11111222,99999999' 
TABS,ioos:station:wmo:42050:1,2002-10-01T15:00:00Z,28.8425,-94.2433,2.0,112.7868002,11.87697352,-99999.0,'11111222,11111222,99999999' 
TABS,ioos:station:wmo:42050:1,2002-10-01T15:30:00Z,28.8425,-94.2433,2.0,122.6480939,10.67697054,-99999.0,'11111222,11111222,99999999' 
TABS,ioos:station:wmo:42050:1,2002-10-01T16:00:00Z,28.8425,-94.2433,2.0,119.6236795,8.213598481,-99999.0,'11133222,11111222,99999999' 
TABS,ioos:station:wmo:42050:1,2002-10-01T16:30:00Z,28.8425,-94.2433,2.0,130.0871866,6.770672049,-99999.0,'11133222,11111222,99999999' 
TABS,ioos:station:wmo:42050:1,2002-10-01T22:30:00Z,28.8425,-94.2433,2.0,313.1987109,22.71642798,-99999.0,'11111222,11111222,99999999' 
TABS,ioos:station:wmo:42050:1,2002-10-01T23:00:00Z,28.8425,-94.2433,2.0,318.9899945,30.69210322,-99999.0,'11111222,11111222,99999999' 
TABS,ioos:station:wmo:42050:1,2002-10-01T23:30:00Z,28.8425,-94.2433,2.0,322.2885143,31.71542369,-99999.0,'11111222,11111222,99999999' 
TABS,ioos:station:wmo:42050:1,2002-10-02T00:00:00Z,28.8425,-94.2433,2.0,322.2830031,36.64800813,-99999.0,'11111222,11111222,99999999' 
TABS,ioos:station:wmo:42050:1,2002-10-02T00:30:00Z,28.8425,-94.2433,2.0,324.2038711,31.91960213,-99999.0,'11111222,11111222,99999999' 
TABS,ioos:station:wmo:42050:1,2002-10-02T01:00:00Z,28.8425,-94.2433,2.0,322.8519783,42.39250052,-99999.0,'11111222,11111222,99999999' 
TABS,ioos:station:wmo:42050:1,2002-10-02T01:30:00Z,28.8425,-94.2433,2.0,319.7528101,45.3187213,-99999.0,'11111222,11111222,99999999' 
TABS,ioos:station:wmo:42050:1,2002-10-02T02:00:00Z,28.8425,-94.2433,2.0,323.2159825,45.52405079,-99999.0,'11111222,11111222,99999999' 
TABS,ioos:station:wmo:42050:1,2002-10-02T02:30:00Z,28.8425,-94.2433,2.0,322.3368881,46.79048728,-99999.0,'11111222,11111222,99999999' 
TABS,ioos:station:wmo:42050:1,2002-10-02T03:00:00Z,28.8425,-94.2433,2.0,318.3410734,42.59070908,-99999.0,'11111222,11111222,99999999' 
TABS,ioos:station:wmo:42050:1,2002-10-02T03:30:00Z,28.8425,-94.2433,2.0,321.273278,46.59447392,-99999.0,'11111222,11111222,99999999' 
TABS,ioos:station:wmo:42050:1,2002-10-02T04:00:00Z,28.8425,-94.2433,2.0,322.340322,45.1082886,-99999.0,'11111222,11111222,99999999' 
TABS,ioos:station:wmo:42050:1,2002-10-02T04:30:00Z,28.8425,-94.2433,2.0,315.3759546,40.98478986,-99999.0,'11111222,11111222,99999999' 
TABS,ioos:station:wmo:42050:1,2002-10-02T05:00:00Z,28.8425,-94.2433,2.0,314.7563329,39.85289952,-99999.0,'11111222,11111222,99999999' 
TABS,ioos:station:wmo:42050:1,2002-10-02T05:30:00Z,28.8425,-94.2433,2.0,319.7319062,33.6030951,-99999.0,'11111222,11111222,99999999' 
TABS,ioos:station:wmo:42050:1,2002-10-02T06:00:00Z,28.8425,-94.2433,2.0,310.2504911,31.68111898,-99999.0,'11111222,11111222,99999999' 
TABS,ioos:station:wmo:42050:1,2002-10-02T06:30:00Z,28.8425,-94.2433,2.0,306.1639505,32.77449008,-99999.0,'11111222,11111222,99999999' 
TABS,ioos:station:wmo:42050:1,2002-10-02T07:00:00Z,28.8425,-94.2433,2.0,308.7362945,27.02433163,-99999.0,'11111222,11111222,99999999' 
TABS,ioos:station:wmo:42050:1,2002-10-02T07:30:00Z,28.8425,-94.2433,2.0,299.7690736,23.84692014,-99999.0,'11111222,11111222,99999999' 
TABS,ioos:station:wmo:42050:1,2002-10-02T08:00:00Z,28.8425,-94.2433,2.0,299.0549571,21.8267359,-99999.0,'11111222,11111222,99999999' 
TABS,ioos:station:wmo:42050:1,2002-10-02T08:30:00Z,28.8425,-94.2433,2.0,299.9108265,19.31228883,-99999.0,'11111222,11111222,99999999' 
TABS,ioos:station:wmo:42050:1,2002-10-02T09:00:00Z,28.8425,-94.2433,2.0,291.8646725,18.60854105,-99999.0,'11111222,11111222,99999999' 
TABS,ioos:station:wmo:42050:1,2002-10-02T09:30:00Z,28.8425,-94.2433,2.0,291.663967,18.52873444,-99999.0,'11111222,11111222,99999999' 
TABS,ioos:station:wmo:42050:1,2002-10-02T10:00:00Z,28.8425,-94.2433,2.0,286.9098606,21.14415759,-99999.0,'11111222,11111222,99999999' 
TABS,ioos:station:wmo:42050:1,2002-10-02T10:30:00Z,28.8425,-94.2433,2.0,277.2686095,21.34148308,-99999.0,'11111222,11111222,99999999' 
TABS,ioos:station:wmo:42050:1,2002-10-02T11:00:00Z,28.8425,-94.2433,2.0,281.7819072,21.206756,-99999.0,'11111222,11111222,99999999' 
TABS,ioos:station:wmo:42050:1,2002-10-02T11:30:00Z,28.8425,-94.2433,2.0,283.2409099,18.16281916,-99999.0,'11111222,11111222,99999999' 
TABS,ioos:station:wmo:42050:1,2002-10-02T12:00:00Z,28.8425,-94.2433,2.0,285.9457795,14.77862308,-99999.0,'11111222,11111222,99999999' 
TABS,ioos:station:wmo:42050:1,2002-10-02T12:30:00Z,28.8425,-94.2433,2.0,294.7888953,20.9172895,-99999.0,'11111222,11111222,99999999' 
TABS,ioos:station:wmo:42050:1,2002-10-02T13:00:00Z,28.8425,-94.2433,2.0,295.9747541,25.59539412,-99999.0,'11111222,11111222,99999999' 
TABS,ioos:station:wmo:42050:1,2002-10-02T13:30:00Z,28.8425,-94.2433,2.0,294.9760385,20.15472649,-99999.0,'11111222,11111222,99999999' 
TABS,ioos:station:wmo:42050:1,2002-10-02T14:00:00Z,28.8425,-94.2433,2.0,294.4684508,25.54405802,-99999.0,'11111222,11111222,99999999' 
TABS,ioos:station:wmo:42050:1,2002-10-02T14:30:00Z,28.8425,-94.2433,2.0,288.7821183,29.25792884,-99999.0,'11111222,11111222,99999999' 
TABS,ioos:station:wmo:42050:1,2002-10-02T19:30:00Z,28.8425,-94.2433,2.0,290.9459123,41.14910692,-99999.0,'11111222,11111222,99999999' 
TABS,ioos:station:wmo:42050:1,2002-10-02T20:00:00Z,28.8425,-94.2433,2.0,285.3087662,41.51292811,-99999.0,'11111222,11111222,99999999' 
TABS,ioos:station:wmo:42050:1,2002-10-02T20:30:00Z,28.8425,-94.2433,2.0,280.0232088,42.5189005,-99999.0,'11111222,11111222,99999999' 
TABS,ioos:station:wmo:42050:1,2002-10-02T21:00:00Z,28.8425,-94.2433,2.0,280.0807078,43.59292718,-99999.0,'11111222,11111222,99999999' 
TABS,ioos:station:wmo:42050:1,2002-10-02T21:30:00Z,28.8425,-94.2433,2.0,283.8522741,48.99487524,-99999.0,'11111222,11111222,99999999' 
TABS,ioos:station:wmo:42050:1,2002-10-02T22:00:00Z,28.8425,-94.2433,2.0,281.4149111,40.82752503,-99999.0,'11111222,11111222,99999999' 
TABS,ioos:station:wmo:42050:1,2002-10-02T22:30:00Z,28.8425,-94.2433,2.0,276.6985529,42.95318032,-99999.0,'11111222,11111222,99999999' 
TABS,ioos:station:wmo:42050:1,2002-10-02T23:00:00Z,28.8425,-94.2433,2.0,271.1443941,32.05638938,-99999.0,'11111222,11111222,99999999' 
TABS,ioos:station:wmo:42050:1,2002-10-02T23:30:00Z,28.8425,-94.2433,2.0,277.0624979,39.52989375,-99999.0,'11111222,11111222,99999999' 
TABS,ioos:station:wmo:42050:1,2002-10-03T00:00:00Z,28.8425,-94.2433,2.0,275.6491914,35.05020542,-99999.0,'11111222,11111222,99999999' 
TABS,ioos:station:wmo:42050:1,2002-10-03T00:30:00Z,28.8425,-94.2433,2.0,272.0933503,36.14411155,-99999.0,'11111222,11111222,99999999' 
TABS,ioos:station:wmo:42050:1,2002-10-03T01:00:00Z,28.8425,-94.2433,2.0,278.0460711,42.22563439,-99999.0,'11111222,11111222,99999999' 
TABS,ioos:station:wmo:42050:1,2002-10-03T01:30:00Z,28.8425,-94.2433,2.0,277.8699418,39.80486654,-99999.0,'11111222,11111222,99999999' 
TABS,ioos:station:wmo:42050:1,2002-10-03T02:00:00Z,28.8425,-94.2433,2.0,280.8859225,42.0974833,-99999.0,'11111222,11111222,99999999' 
TABS,ioos:station:wmo:42050:1,2002-10-03T02:30:00Z,28.8425,-94.2433,2.0,279.3487555,38.84591356,-99999.0,'11111222,11111222,99999999' 
TABS,ioos:station:wmo:42050:1,2002-10-03T03:00:00Z,28.8425,-94.2433,2.0,278.7238633,36.46179507,-99999.0,'11111222,11111222,99999999' 
TABS,ioos:station:wmo:42050:1,2002-10-03T03:30:00Z,28.8425,-94.2433,2.0,277.1445096,37.22902765,-99999.0,'11111222,11111222,99999999' 
TABS,ioos:station:wmo:42050:1,2002-10-03T04:00:00Z,28.8425,-94.2433,2.0,282.6445933,38.2373247,-99999.0,'11111222,11111222,99999999' 
TABS,ioos:station:wmo:42050:1,2002-10-03T04:30:00Z,28.8425,-94.2433,2.0,274.6229079,38.09390765,-99999.0,'11111222,11111222,99999999' 
TABS,ioos:station:wmo:42050:1,2002-10-03T05:00:00Z,28.8425,-94.2433,2.0,268.7943786,35.65788833,-99999.0,'11111222,11111222,99999999' 
TABS,ioos:station:wmo:42050:1,2002-10-03T05:30:00Z,28.8425,-94.2433,2.0,266.1956676,37.53268709,-99999.0,'11111222,11111222,99999999' 
TABS,ioos:station:wmo:42050:1,2002-10-03T06:00:00Z,28.8425,-94.2433,2.0,261.1885484,35.57988336,-99999.0,'11111222,11111222,99999999' 
TABS,ioos:station:wmo:42050:1,2002-10-03T06:30:00Z,28.8425,-94.2433,2.0,256.6311641,36.41677223,-99999.0,'11111222,11111222,99999999' 
TABS,ioos:station:wmo:42050:1,2002-10-03T07:00:00Z,28.8425,-94.2433,2.0,251.4858624,34.48467051,-99999.0,'11111222,11111222,99999999' 
TABS,ioos:station:wmo:42050:1,2002-10-03T07:30:00Z,28.8425,-94.2433,2.0,248.4062923,33.7484933,-99999.0,'11111222,11111222,99999999' 
TABS,ioos:station:wmo:42050:1,2002-10-03T08:00:00Z,28.8425,-94.2433,2.0,243.5334892,38.86291934,-99999.0,'11111222,11111222,99999999' 
TABS,ioos:station:wmo:42050:1,2002-10-03T08:30:00Z,28.8425,-94.2433,2.0,246.3899045,40.07444198,-99999.0,'11111222,11111222,99999999' 
TABS,ioos:station:wmo:42050:1,2002-10-03T09:00:00Z,28.8425,-94.2433,2.0,244.1372577,35.37278332,-99999.0,'11111222,11111222,99999999' 
TABS,ioos:station:wmo:42050:1,2002-10-03T09:30:00Z,28.8425,-94.2433,2.0,239.7261705,38.72033058,-99999.0,'11111222,11111222,99999999' 
TABS,ioos:station:wmo:42050:1,2002-10-03T10:00:00Z,28.8425,-94.2433,2.0,242.0868554,40.30956834,-99999.0,'11111222,11111222,99999999' 
TABS,ioos:station:wmo:42050:1,2002-10-03T10:30:00Z,28.8425,-94.2433,2.0,240.7482016,38.1669032,-99999.0,'11111222,11111222,99999999' 
TABS,ioos:station:wmo:42050:1,2002-10-03T11:00:00Z,28.8425,-94.2433,2.0,236.4954526,35.05446334,-99999.0,'11111222,11111222,99999999' 
TABS,ioos:station:wmo:42050:1,2002-10-03T11:30:00Z,28.8425,-94.2433,2.0,232.7518075,40.62688396,-99999.0,'11111222,11111222,99999999' 
TABS,ioos:station:wmo:42050:1,2002-10-03T12:00:00Z,28.8425,-94.2433,2.0,232.7010712,24.32468088,-99999.0,'11111222,11111222,99999999' 
TABS,ioos:station:wmo:42050:1,2002-10-03T12:30:00Z,28.8425,-94.2433,2.0,226.8651075,17.59507033,-99999.0,'11111222,11111222,99999999' 
TABS,ioos:station:wmo:42050:1,2002-10-03T13:00:00Z,28.8425,-94.2433,2.0,220.0109457,15.69358149,-99999.0,'11111222,11111222,99999999' 
TABS,ioos:station:wmo:42050:1,2002-10-03T13:30:00Z,28.8425,-94.2433,2.0,228.2975032,17.33160408,-99999.0,'11111222,11111222,99999999' 
TABS,ioos:station:wmo:42050:1,2002-10-03T14:00:00Z,28.8425,-94.2433,2.0,220.6373703,13.66553695,-99999.0,'11111222,11111222,99999999' 
TABS,ioos:station:wmo:42050:1,2002-10-03T14:30:00Z,28.8425,-94.2433,2.0,225.0472326,8.520639647,-99999.0,'11133222,11111222,99999999' 
TABS,ioos:station:wmo:42050:1,2002-10-03T15:00:00Z,28.8425,-94.2433,2.0,253.7629715,9.728000822,-99999.0,'11133222,11111222,99999999' 
TABS,ioos:station:wmo:42050:1,2002-10-03T15:30:00Z,28.8425,-94.2433,2.0,256.9788422,9.85334461,-99999.0,'11133222,11111222,99999999' 
TABS,ioos:station:wmo:42050:1,2002-10-03T16:00:00Z,28.8425,-94.2433,2.0,285.904306,3.795273376,-99999.0,'11133222,11111222,99999999' 
TABS,ioos:station:wmo:42050:1,2002-10-03T16:30:00Z,28.8425,-94.2433,2.0,263.5708464,7.144928271,-99999.0,'11133222,11111222,99999999' 
TABS,ioos:station:wmo:42050:1,2002-10-03T17:00:00Z,28.8425,-94.2433,2.0,276.4291536,2.143478481,-99999.0,'11133222,11111222,99999999' 
TABS,ioos:station:wmo:42050:1,2002-10-03T17:30:00Z,28.8425,-94.2433,2.0,216.572735,1.158015544,-99999.0,'11133222,11111222,99999999' 
TABS,ioos:station:wmo:42050:1,2002-10-03T18:00:00Z,28.8425,-94.2433,2.0,125.019997,3.345743565,-99999.0,'11133222,11111222,99999999' 
TABS,ioos:station:wmo:42050:1,2002-10-03T18:30:00Z,28.8425,-94.2433,2.0,141.4414798,6.176681957,-99999.0,'11133222,11111222,99999999' 
TABS,ioos:station:wmo:42050:1,2002-10-03T19:00:00Z,28.8425,-94.2433,2.0,126.404791,5.914194789,-99999.0,'11133222,11111222,99999999' 
TABS,ioos:station:wmo:42050:1,2002-10-03T19:30:00Z,28.8425,-94.2433,2.0,145.9488634,10.12625301,-99999.0,'11111222,11111222,99999999' 
TABS,ioos:station:wmo:42050:1,2002-10-03T20:00:00Z,28.8425,-94.2433,2.0,146.9510748,8.673280809,-99999.0,'11133222,11111222,99999999' 
TABS,ioos:station:wmo:42050:1,2002-10-03T20:30:00Z,28.8425,-94.2433,2.0,150.478134,16.56000302,-99999.0,'11111222,11111222,99999999' 
TABS,ioos:station:wmo:42050:1,2002-10-03T21:00:00Z,28.8425,-94.2433,2.0,146.4085863,16.0863296,-99999.0,'11111222,11111222,99999999' 
TABS,ioos:station:wmo:42050:1,2002-10-03T21:30:00Z,28.8425,-94.2433,2.0,150.4673827,21.07860764,-99999.0,'11111222,11111222,99999999' 
TABS,ioos:station:wmo:42050:1,2002-10-03T22:00:00Z,28.8425,-94.2433,2.0,155.4802042,25.68642638,-99999.0,'11111222,11111222,99999999' 
TABS,ioos:station:wmo:42050:1,2002-10-03T22:30:00Z,28.8425,-94.2433,2.0,151.6824209,25.59258682,-99999.0,'11111222,11111222,99999999' 
TABS,ioos:station:wmo:42050:1,2002-10-03T23:00:00Z,28.8425,-94.2433,2.0,140.3175808,20.82908783,-99999.0,'11111222,11111222,99999999' 
TABS,ioos:station:wmo:42050:1,2002-10-03T23:30:00Z,28.8425,-94.2433,2.0,131.8653049,18.87971398,-99999.0,'11111222,11111222,99999999' 
TABS,ioos:station:wmo:42050:1,2002-10-04T00:00:00Z,28.8425,-94.2433,2.0,121.3565109,15.25858775,-99999.0,'11111222,11111222,99999999' 
TABS,ioos:station:wmo:42050:1,2002-10-04T00:30:00Z,28.8425,-94.2433,2.0,113.7673684,15.2099737,-99999.0,'11111222,11111222,99999999' 
TABS,ioos:station:wmo:42050:1,2002-10-04T01:00:00Z,28.8425,-94.2433,2.0,106.9586765,13.74782165,-99999.0,'11111222,11111222,99999999' 
TABS,ioos:station:wmo:42050:1,2002-10-04T01:30:00Z,28.8425,-94.2433,2.0,88.84482986,13.3927219,-99999.0,'11111222,11111222,99999999' 
TABS,ioos:station:wmo:42050:1,2002-10-04T02:00:00Z,28.8425,-94.2433,2.0,72.05251648,16.3558919,-99999.0,'11111222,11111222,99999999' 
TABS,ioos:station:wmo:42050:1,2002-10-04T02:30:00Z,28.8425,-94.2433,2.0,64.81953041,16.28780218,-99999.0,'11111222,11111222,99999999' 
TABS,ioos:station:wmo:42050:1,2002-10-04T03:00:00Z,28.8425,-94.2433,2.0,64.76135452,24.3438863,-99999.0,'11111222,11111222,99999999' 
TABS,ioos:station:wmo:42050:1,2002-10-04T03:30:00Z,28.8425,-94.2433,2.0,60.87528349,29.33965405,-99999.0,'11111222,11111222,99999999' 
TABS,ioos:station:wmo:42050:1,2002-10-04T04:00:00Z,28.8425,-94.2433,2.0,59.61300604,32.20392057,-99999.0,'11111222,11111222,99999999' 
TABS,ioos:station:wmo:42050:1,2002-10-04T04:30:00Z,28.8425,-94.2433,2.0,63.48183385,32.83443315,-99999.0,'11111222,11111222,99999999' 
TABS,ioos:station:wmo:42050:1,2002-10-04T05:00:00Z,28.8425,-94.2433,2.0,66.62718094,34.53375161,-99999.0,'11111222,11111222,99999999' 
TABS,ioos:station:wmo:42050:1,2002-10-04T05:30:00Z,28.8425,-94.2433,2.0,68.20787727,34.55975984,-99999.0,'11111222,11111222,99999999' 
TABS,ioos:station:wmo:42050:1,2002-10-04T06:00:00Z,28.8425,-94.2433,2.0,74.47688756,31.87263717,-99999.0,'11111222,11111222,99999999' 
TABS,ioos:station:wmo:42050:1,2002-10-04T06:30:00Z,28.8425,-94.2433,2.0,77.55140454,31.77708923,-99999.0,'11111222,11111222,99999999' 
TABS,ioos:station:wmo:42050:1,2002-10-04T07:00:00Z,28.8425,-94.2433,2.0,83.43961884,28.44626689,-99999.0,'11111222,11111222,99999999' 
TABS,ioos:station:wmo:42050:1,2002-10-04T07:30:00Z,28.8425,-94.2433,2.0,91.43568054,27.93877055,-99999.0,'11111222,11111222,99999999' 
TABS,ioos:station:wmo:42050:1,2002-10-04T08:00:00Z,28.8425,-94.2433,2.0,95.11392174,27.71030314,-99999.0,'11111222,11111222,99999999' 
TABS,ioos:station:wmo:42050:1,2002-10-04T08:30:00Z,28.8425,-94.2433,2.0,100.7502273,29.91502131,-99999.0,'11111222,11111222,99999999' 
TABS,ioos:station:wmo:42050:1,2002-10-04T09:00:00Z,28.8425,-94.2433,2.0,97.60804179,31.04327624,-99999.0,'11111222,11111222,99999999' 
TABS,ioos:station:wmo:42050:1,2002-10-04T09:30:00Z,28.8425,-94.2433,2.0,105.9403203,31.24128679,-99999.0,'11111222,11111222,99999999' 
TABS,ioos:station:wmo:42050:1,2002-10-04T10:00:00Z,28.8425,-94.2433,2.0,109.5827131,33.62492082,-99999.0,'11111222,11111222,99999999' 
TABS,ioos:station:wmo:42050:1,2002-10-04T10:30:00Z,28.8425,-94.2433,2.0,112.9137876,32.23350121,-99999.0,'11111222,11111222,99999999' 
TABS,ioos:station:wmo:42050:1,2002-10-04T11:00:00Z,28.8425,-94.2433,2.0,112.8780045,31.92109334,-99999.0,'11111222,11111222,99999999' 
TABS,ioos:station:wmo:42050:1,2002-10-04T11:30:00Z,28.8425,-94.2433,2.0,108.1201642,29.93457199,-99999.0,'11111222,11111222,99999999' 
TABS,ioos:station:wmo:42050:1,2002-10-04T12:00:00Z,28.8425,-94.2433,2.0,104.0785399,22.98025674,-99999.0,'11111222,11111222,99999999' 
TABS,ioos:station:wmo:42050:1,2002-10-04T12:30:00Z,28.8425,-94.2433,2.0,104.7110268,25.12358255,-99999.0,'11111222,11111222,99999999' 
TABS,ioos:station:wmo:42050:1,2002-10-04T13:00:00Z,28.8425,-94.2433,2.0,100.6117261,26.71692348,-99999.0,'11111222,11111222,99999999' 
TABS,ioos:station:wmo:42050:1,2002-10-04T13:30:00Z,28.8425,-94.2433,2.0,105.7643642,25.65496053,-99999.0,'11111222,11111222,99999999' 
TABS,ioos:station:wmo:42050:1,2002-10-04T14:00:00Z,28.8425,-94.2433,2.0,100.3473055,25.33197387,-99999.0,'11111222,11111222,99999999' 
TABS,ioos:station:wmo:42050:1,2002-10-04T14:30:00Z,28.8425,-94.2433,2.0,102.4054584,23.18124242,-99999.0,'11111222,11111222,99999999' 
TABS,ioos:station:wmo:42050:1,2002-10-04T15:00:00Z,28.8425,-94.2433,2.0,100.8812128,20.18287641,-99999.0,'11111222,11111222,99999999' 
TABS,ioos:station:wmo:42050:1,2002-10-04T15:30:00Z,28.8425,-94.2433,2.0,99.43251806,18.97657767,-99999.0,'11111222,11111222,99999999' 
TABS,ioos:station:wmo:42050:1,2002-10-04T16:00:00Z,28.8425,-94.2433,2.0,96.40800127,15.85908257,-99999.0,'11111222,11111222,99999999' 
TABS,ioos:station:wmo:42050:1,2002-10-04T16:30:00Z,28.8425,-94.2433,2.0,108.750553,17.79440642,-99999.0,'11111222,11111222,99999999' 
TABS,ioos:station:wmo:42050:1,2002-10-04T17:00:00Z,28.8425,-94.2433,2.0,108.8562691,16.77001193,-99999.0,'11111222,11111222,99999999' 
TABS,ioos:station:wmo:42050:1,2002-10-04T17:30:00Z,28.8425,-94.2433,2.0,121.3939662,17.58424579,-99999.0,'11111222,11111222,99999999' 
TABS,ioos:station:wmo:42050:1,2002-10-04T18:00:00Z,28.8425,-94.2433,2.0,135.79195,15.34568343,-99999.0,'11111222,11111222,99999999' 
TABS,ioos:station:wmo:42050:1,2002-10-04T18:30:00Z,28.8425,-94.2433,2.0,142.1650456,16.27030731,-99999.0,'11111222,11111222,99999999' 
TABS,ioos:station:wmo:42050:1,2002-10-04T19:00:00Z,28.8425,-94.2433,2.0,160.3539977,19.30369136,-99999.0,'11111222,11111222,99999999' 
TABS,ioos:station:wmo:42050:1,2002-10-04T19:30:00Z,28.8425,-94.2433,2.0,159.0851945,20.75765401,-99999.0,'11111222,11111222,99999999' 
TABS,ioos:station:wmo:42050:1,2002-10-04T20:00:00Z,28.8425,-94.2433,2.0,177.8664183,12.08837872,-99999.0,'11111222,11111222,99999999' 
TABS,ioos:station:wmo:42050:1,2002-10-04T20:30:00Z,28.8425,-94.2433,2.0,194.9352896,8.962795323,-99999.0,'11133222,11111222,99999999' 
TABS,ioos:station:wmo:42050:1,2002-10-04T21:00:00Z,28.8425,-94.2433,2.0,206.4023369,11.04174805,-99999.0,'11111222,11111222,99999999' 
TABS,ioos:station:wmo:42050:1,2002-10-04T21:30:00Z,28.8425,-94.2433,2.0,201.0746995,21.96952435,-99999.0,'11111222,11111222,99999999' 
TABS,ioos:station:wmo:42050:1,2002-10-04T22:00:00Z,28.8425,-94.2433,2.0,201.7154707,23.59447605,-99999.0,'11111222,11111222,99999999' 
TABS,ioos:station:wmo:42050:1,2002-10-04T22:30:00Z,28.8425,-94.2433,2.0,211.4352086,22.91298758,-99999.0,'11111222,11111222,99999999' 
TABS,ioos:station:wmo:42050:1,2002-10-04T23:00:00Z,28.8425,-94.2433,2.0,217.4050587,26.53715885,-99999.0,'11111222,11111222,99999999' 
TABS,ioos:station:wmo:42050:1,2002-10-04T23:30:00Z,28.8425,-94.2433,2.0,227.2553133,24.07442627,-99999.0,'11111222,11111222,99999999' 
TABS,ioos:station:wmo:42050:1,2002-10-05T00:00:00Z,28.8425,-94.2433,2.0,225.9542232,22.49618857,-99999.0,'11111222,11111222,99999999' 
TABS,ioos:station:wmo:42050:1,2002-10-05T00:30:00Z,28.8425,-94.2433,2.0,233.6342526,17.9446956,-99999.0,'11111222,11111222,99999999' 
TABS,ioos:station:wmo:42050:1,2002-10-05T01:00:00Z,28.8425,-94.2433,2.0,240.996276,22.8106576,-99999.0,'11111222,11111222,99999999' 
TABS,ioos:station:wmo:42050:1,2002-10-05T01:30:00Z,28.8425,-94.2433,2.0,244.8010752,23.816425,-99999.0,'11111222,11111222,99999999' 
TABS,ioos:station:wmo:42050:1,2002-10-05T02:00:00Z,28.8425,-94.2433,2.0,250.6957293,21.47749753,-99999.0,'11111222,11111222,99999999' 